Location: Unspecified
(50.1700°N, 6.8600°E)
Time: 20:44:53
(UTC+00:00)

H-2A R/B - Pass Details

Date: 24 January 2019
Orbit: 501 x 545 km, 97.3° (Epoch: 15 February)

Event Time Altitude Azimuth Distance (km) Brightness Sun altitude
Rises 06:29:47 0° 14° (NNE) 2,610 6.2 -7.7°
Reaches altitude 10° 06:31:53 10° 16° (NNE) 1,722 5.3 -7.4°
Maximum altitude 06:35:35 74° 102° (ESE) 530 2.9 -6.9°
Drops below altitude 10° 06:39:16 10° 188° (S) 1,717 5.5 -6.3°
Sets 06:41:22 0° 190° (S) 2,603 6.4 -6.0°
